Weather History for KBOK - September, 2012

Change the Weather History Date:

Monday, September 24, 2012

  Actual Average Record
Temperature  
Mean Temperature 66 °F -  
Max Temperature 79 °F 68 °F 94 °F (1964)
Min Temperature 52 °F 50 °F 40 °F (1993)
Growing Degree Days 16 (Base 50)    
Moisture  
Dew Point 51 °F    
Average Humidity 62    
Maximum Humidity 100    
Minimum Humidity 28    
Precipitation  
Precipitation 0.00 in - - ()
Sea Level Pressure  
Sea Level Pressure 30.02 in    
Wind  
Wind Speed 2 mph (NNW)    
Max Wind Speed 13 mph    
Max Gust Speed -    
Visibility 10 miles    
Events      
Averages and records for this station are not official NWS values.
T = Trace of Precipitation, MM = Missing Value Source: NWS Daily Summary

Daily Weather History Graph

Daily Weather History Graph

Search for Another Location

Airport or City:

Trip Planner

Search our weather history database for the weather conditions in past years. The results will help you decide how hot, cold, wet, or windy it might be!

Date:

Astronomy

Sep. 24, 2012 Rise Set
Actual Time 7:07 AM PDT 7:09 PM PDT
Civil Twilight 6:39 AM PDT 7:37 PM PDT
Nautical Twilight 6:06 AM PDT 8:10 PM PDT
Astronomical Twilight 5:33 AM PDT 8:43 PM PDT
Moon 4:04 PM PDT (9/24) 1:24 AM PDT (9/24)
Length of Visible Light 12h 58m
Length of Day
12h 02m
Waxing Gibbous, 71% of the Moon is Illuminated
Sep 24
Waxing Gibbous
Sep 29
Full
Oct 8
Last Quarter
Oct 15
New
Oct 21
First Quarter

Hourly Weather History & Observations

Time (PDT) Temp. Dew Point Humidity Pressure Visibility Wind Dir Wind Speed Gust Speed Precip Events Conditions
12:56 AM 52.9 °F 52.9 °F 100% 30.04 in 10.0 mi Calm Calm - N/A   Clear
1:56 AM 52.9 °F 52.9 °F 100% 30.03 in 10.0 mi Calm Calm - N/A   Clear
2:56 AM 54.0 °F 52.9 °F 96% 30.03 in 10.0 mi Calm Calm - N/A   Clear
3:56 AM 54.9 °F 50.9 °F 86% 30.03 in 10.0 mi Calm Calm - N/A   Clear
4:56 AM 55.9 °F 50.0 °F 80% 30.04 in 10.0 mi Calm Calm - N/A   Clear
5:56 AM 54.0 °F 50.0 °F 86% 30.04 in 10.0 mi Calm Calm - N/A   Clear
6:56 AM 65.8 °F 45.9 °F 48% 30.04 in 10.0 mi Variable 5.8 mph - N/A   Clear
7:56 AM 59.0 °F 47.8 °F 66% 30.06 in 10.0 mi Calm Calm - N/A   Clear
8:56 AM 61.0 °F 50.9 °F 69% 30.06 in 10.0 mi Calm Calm - N/A   Clear
9:56 AM 70.9 °F 50.9 °F 49% 30.07 in 10.0 mi Calm Calm - N/A   Clear
10:56 AM 74.8 °F 50.9 °F 43% 30.06 in 10.0 mi SW 5.8 mph - N/A   Clear
11:56 AM 79.9 °F 43.9 °F 28% 30.04 in 10.0 mi Variable 5.8 mph - N/A   Clear
12:56 PM 77.9 °F 50.0 °F 38% 30.03 in 10.0 mi NW 10.4 mph - N/A   Clear
1:56 PM 79.0 °F 47.8 °F 33% 30.01 in 10.0 mi NNW 10.4 mph - N/A   Clear
2:56 PM 79.0 °F 52.0 °F 39% 30.00 in 10.0 mi NNW 10.4 mph - N/A   Clear
3:56 PM 77.9 °F 52.9 °F 42% 29.98 in 10.0 mi NW 10.4 mph - N/A   Clear
4:56 PM 75.9 °F 52.9 °F 45% 29.98 in 10.0 mi NNW 12.7 mph - N/A   Clear
5:56 PM 75.9 °F 54.0 °F 46% 29.97 in 10.0 mi NNW 8.1 mph - N/A   Clear
6:56 PM 74.8 °F 52.9 °F 46% 29.97 in 10.0 mi North 5.8 mph - N/A   Clear
7:56 PM 72.9 °F 50.9 °F 46% 29.97 in 10.0 mi NNE 3.5 mph - N/A   Clear
8:56 PM 65.8 °F 54.0 °F 65% 29.98 in 10.0 mi Calm Calm - N/A   Clear
9:56 PM 63.0 °F 54.0 °F 72% 29.99 in 10.0 mi Calm Calm - N/A   Clear
10:56 PM 61.9 °F 52.9 °F 72% 29.99 in 10.0 mi Calm Calm - N/A   Clear
11:56 PM 57.9 °F 54.0 °F 87% 29.99 in 8.0 mi Calm Calm - N/A   Clear